Time,TemperatureF,DewpointF,PressureIn,WindDirection,WindDirectionDegrees,WindSpeedMPH,WindSpeedGustMPH,Humidity,HourlyPrecipIn,Conditions,Clouds,dailyrainin,SoftwareType,DateUTC
2013-05-09 00:01:00,51.3,47.8,29.93,SSW,203,0.9,1.1,88,0.00,,,0.00,WUHU216HW,2013-05-09 04:01:00,
2013-05-09 00:06:00,51.3,47.8,29.93,SW,225,0.4,1.1,88,0.00,,,0.00,WUHU216HW,2013-05-09 04:06:00,
2013-05-09 00:11:00,51.3,47.8,29.93,SW,225,0.0,2.2,88,0.00,,,0.00,WUHU216HW,2013-05-09 04:11:00,
2013-05-09 00:16:00,51.3,47.8,29.93,WSW,248,0.0,2.2,88,0.00,,,0.00,WUHU216HW,2013-05-09 04:16:00,
2013-05-09 00:21:00,51.3,47.8,29.94,SW,225,0.0,0.4,88,0.00,,,0.00,WUHU216HW,2013-05-09 04:21:00,
2013-05-09 00:26:00,51.3,47.8,29.94,SW,225,0.9,0.9,88,0.00,,,0.00,WUHU216HW,2013-05-09 04:26:00,
2013-05-09 00:31:00,51.3,47.8,29.94,SW,225,0.0,0.9,88,0.00,,,0.00,WUHU216HW,2013-05-09 04:31:00,
2013-05-09 00:36:00,51.1,47.6,29.94,SW,225,0.2,1.1,88,0.00,,,0.00,WUHU216HW,2013-05-09 04:36:00,
2013-05-09 00:41:00,51.3,47.8,29.94,SW,225,0.0,1.1,88,0.00,,,0.00,WUHU216HW,2013-05-09 04:41:00,
2013-05-09 00:46:00,51.3,48.2,29.94,SW,225,0.0,0.4,89,0.00,,,0.00,WUHU216HW,2013-05-09 04:46:00,
2013-05-09 00:51:00,51.3,48.2,29.93,WSW,248,0.4,0.4,89,0.00,,,0.00,WUHU216HW,2013-05-09 04:51:00,
2013-05-09 00:56:00,51.5,48.3,29.93,WSW,248,1.1,1.8,89,0.00,,,0.00,WUHU216HW,2013-05-09 04:56:00,
2013-05-09 01:01:00,51.5,48.3,29.93,SW,225,0.7,1.8,89,0.00,,,0.00,WUHU216HW,2013-05-09 05:01:00,
2013-05-09 01:06:00,51.5,48.3,29.92,SW,225,2.5,2.5,89,0.00,,,0.00,WUHU216HW,2013-05-09 05:06:00,
2013-05-09 01:11:00,51.5,48.3,29.93,SW,225,1.1,2.5,89,0.00,,,0.00,WUHU216HW,2013-05-09 05:11:00,
2013-05-09 01:16:00,51.5,48.3,29.92,SW,225,0.0,2.5,89,0.00,,,0.00,WUHU216HW,2013-05-09 05:16:00,
2013-05-09 01:21:00,51.5,48.3,29.92,WSW,248,0.0,2.5,89,0.00,,,0.00,WUHU216HW,2013-05-09 05:21:00,
2013-05-09 01:26:00,51.5,48.3,29.92,SW,225,0.0,1.1,89,0.00,,,0.00,WUHU216HW,2013-05-09 05:26:00,
2013-05-09 01:31:00,51.3,48.2,29.92,WSW,248,1.1,1.1,89,0.00,,,0.00,WUHU216HW,2013-05-09 05:31:00,
2013-05-09 01:36:00,51.1,48.0,29.92,SW,225,1.3,1.3,89,0.00,,,0.00,WUHU216HW,2013-05-09 05:36:00,
2013-05-09 01:41:00,51.1,48.0,29.92,WSW,248,2.2,2.5,89,0.00,,,0.00,WUHU216HW,2013-05-09 05:41:00,
2013-05-09 01:46:00,51.1,48.0,29.92,WSW,248,0.0,2.5,89,0.00,,,0.00,WUHU216HW,2013-05-09 05:46:00,
2013-05-09 01:51:00,51.1,48.0,29.92,SW,225,0.9,2.5,89,0.00,,,0.00,WUHU216HW,2013-05-09 05:51:00,
2013-05-09 01:56:00,51.1,48.0,29.92,WSW,248,0.2,2.5,89,0.00,,,0.00,WUHU216HW,2013-05-09 05:56:00,
2013-05-09 02:01:00,51.1,48.0,29.91,WSW,248,0.4,2.2,89,0.00,,,0.00,WUHU216HW,2013-05-09 06:01:00,
2013-05-09 02:06:00,51.1,48.0,29.91,WSW,248,0.9,1.8,89,0.00,,,0.00,WUHU216HW,2013-05-09 06:06:00,
2013-05-09 02:11:00,51.1,48.2,29.91,WSW,248,1.8,1.8,90,0.00,,,0.00,WUHU216HW,2013-05-09 06:11:00,
2013-05-09 02:16:00,51.1,48.2,29.91,WSW,248,0.0,1.8,90,0.00,,,0.00,WUHU216HW,2013-05-09 06:16:00,
2013-05-09 02:21:00,50.9,48.1,29.91,West,270,0.7,1.3,90,0.00,,,0.00,WUHU216HW,2013-05-09 06:21:00,
2013-05-09 02:26:00,50.9,48.1,29.90,SSW,203,0.7,1.3,90,0.00,,,0.00,WUHU216HW,2013-05-09 06:26:00,
2013-05-09 02:31:00,50.9,48.1,29.90,SW,225,2.5,4.3,90,0.00,,,0.00,WUHU216HW,2013-05-09 06:31:00,
2013-05-09 02:36:00,51.1,48.2,29.90,SW,225,2.9,4.3,90,0.00,,,0.00,WUHU216HW,2013-05-09 06:36:00,
2013-05-09 02:41:00,51.1,48.2,29.90,SSW,203,3.4,3.4,90,0.00,,,0.00,WUHU216HW,2013-05-09 06:41:00,
2013-05-09 02:46:00,51.1,48.0,29.89,SW,225,1.1,4.0,89,0.00,,,0.00,WUHU216HW,2013-05-09 06:46:00,
2013-05-09 02:52:00,51.3,48.4,29.89,South,180,4.7,4.7,90,0.00,,,0.00,WUHU216HW,2013-05-09 06:52:00,
2013-05-09 02:56:00,51.1,48.2,29.89,SSW,203,2.0,4.7,90,0.00,,,0.00,WUHU216HW,2013-05-09 06:56:00,
2013-05-09 03:01:00,50.9,48.1,29.89,South,180,0.9,4.5,90,0.00,,,0.00,WUHU216HW,2013-05-09 07:01:00,
2013-05-09 03:06:00,50.9,48.1,29.89,WSW,248,1.1,1.8,90,0.00,,,0.00,WUHU216HW,2013-05-09 07:06:00,
2013-05-09 03:11:00,50.8,47.6,29.89,SSW,203,2.5,2.9,89,0.00,,,0.00,WUHU216HW,2013-05-09 07:11:00,
2013-05-09 03:16:00,50.6,47.1,29.89,SW,225,2.0,3.4,88,0.00,,,0.00,WUHU216HW,2013-05-09 07:16:00,
2013-05-09 03:21:00,50.4,46.9,29.89,SW,225,1.8,3.4,88,0.00,,,0.00,WUHU216HW,2013-05-09 07:21:00,
2013-05-09 03:26:00,50.4,46.9,29.89,WSW,248,2.5,2.7,88,0.00,,,0.00,WUHU216HW,2013-05-09 07:26:00,
2013-05-09 03:31:00,50.2,46.7,29.89,South,180,2.0,2.5,88,0.00,,,0.00,WUHU216HW,2013-05-09 07:31:00,
2013-05-09 03:36:00,50.2,46.7,29.89,SSW,203,2.7,3.4,88,0.00,,,0.00,WUHU216HW,2013-05-09 07:36:00,
2013-05-09 03:42:00,50.0,46.5,29.89,WSW,248,0.4,3.4,88,0.00,,,0.00,WUHU216HW,2013-05-09 07:42:00,
2013-05-09 03:47:00,50.0,46.5,29.88,SW,225,0.2,2.5,88,0.00,,,0.00,WUHU216HW,2013-05-09 07:47:00,
2013-05-09 03:52:00,49.9,46.4,29.88,WSW,248,1.8,2.5,88,0.00,,,0.00,WUHU216HW,2013-05-09 07:52:00,
2013-05-09 03:57:00,49.7,46.3,29.88,WSW,248,3.4,3.4,88,0.00,,,0.00,WUHU216HW,2013-05-09 07:57:00,
2013-05-09 04:02:00,49.5,46.1,29.88,WSW,248,1.3,3.4,88,0.00,,,0.00,WUHU216HW,2013-05-09 08:02:00,
2013-05-09 04:07:00,49.5,46.1,29.88,SW,225,0.9,3.1,88,0.00,,,0.00,WUHU216HW,2013-05-09 08:07:00,
2013-05-09 04:12:00,49.3,46.2,29.89,WSW,248,0.4,1.8,89,0.00,,,0.00,WUHU216HW,2013-05-09 08:12:00,
2013-05-09 04:17:00,49.3,46.2,29.89,SW,225,0.7,1.6,89,0.00,,,0.00,WUHU216HW,2013-05-09 08:17:00,
2013-05-09 04:22:00,49.1,46.1,29.88,SSW,203,1.1,1.6,89,0.00,,,0.00,WUHU216HW,2013-05-09 08:22:00,
2013-05-09 04:27:00,49.1,46.1,29.88,South,180,1.8,3.1,89,0.00,,,0.00,WUHU216HW,2013-05-09 08:27:00,
2013-05-09 04:32:00,49.0,45.9,29.88,SSE,158,0.4,3.1,89,0.00,,,0.00,WUHU216HW,2013-05-09 08:32:00,
2013-05-09 04:37:00,49.1,46.1,29.88,SSW,203,0.7,1.1,89,0.00,,,0.00,WUHU216HW,2013-05-09 08:37:00,
2013-05-09 04:42:00,49.0,45.9,29.88,South,180,0.2,1.1,89,0.00,,,0.00,WUHU216HW,2013-05-09 08:42:00,
2013-05-09 04:47:00,49.0,45.9,29.88,WSW,248,0.0,1.1,89,0.00,,,0.00,WUHU216HW,2013-05-09 08:47:00,
2013-05-09 04:52:00,49.0,45.9,29.88,WSW,248,0.0,0.2,89,0.00,,,0.00,WUHU216HW,2013-05-09 08:52:00,
2013-05-09 04:57:00,49.0,45.9,29.88,SW,225,0.0,0.0,89,0.00,,,0.00,WUHU216HW,2013-05-09 08:57:00,
2013-05-09 05:02:00,49.0,45.5,29.89,SW,225,0.0,0.0,88,0.00,,,0.00,WUHU216HW,2013-05-09 09:02:00,
2013-05-09 05:08:00,48.8,45.4,29.89,WSW,248,0.7,0.9,88,0.00,,,0.00,WUHU216HW,2013-05-09 09:08:00,
2013-05-09 05:13:00,48.6,45.5,29.89,SW,225,1.1,1.1,89,0.00,,,0.00,WUHU216HW,2013-05-09 09:13:00,
2013-05-09 05:18:00,48.6,45.5,29.89,WSW,248,1.3,1.3,89,0.00,,,0.00,WUHU216HW,2013-05-09 09:18:00,
2013-05-09 05:23:00,48.6,45.5,29.89,WSW,248,1.8,2.0,89,0.00,,,0.00,WUHU216HW,2013-05-09 09:23:00,
2013-05-09 05:30:00,49.0,45.9,29.89,WSW,248,1.8,4.0,89,0.00,,,0.00,WUHU216HW,2013-05-09 09:30:00,
2013-05-09 05:35:00,49.1,46.1,29.89,WSW,248,3.6,4.0,89,0.00,,,0.00,WUHU216HW,2013-05-09 09:35:00,
2013-05-09 05:40:00,49.3,46.5,29.89,SW,225,4.0,4.0,90,0.00,,,0.00,WUHU216HW,2013-05-09 09:40:00,
2013-05-09 05:45:00,49.5,46.7,29.89,SW,225,3.8,4.0,90,0.00,,,0.00,WUHU216HW,2013-05-09 09:45:00,
2013-05-09 05:50:00,49.5,46.7,29.89,SSW,203,3.1,4.0,90,0.00,,,0.00,WUHU216HW,2013-05-09 09:50:00,
2013-05-09 05:55:00,49.5,46.7,29.88,West,270,2.5,4.0,90,0.00,,,0.00,WUHU216HW,2013-05-09 09:55:00,
2013-05-09 06:00:00,49.5,46.7,29.88,South,180,2.7,4.7,90,0.00,,,0.00,WUHU216HW,2013-05-09 10:00:00,
2013-05-09 06:05:00,49.7,46.8,29.89,WNW,293,1.3,4.7,90,0.00,,,0.00,WUHU216HW,2013-05-09 10:05:00,
2013-05-09 06:10:00,49.7,46.8,29.89,WSW,248,1.1,4.3,90,0.00,,,0.00,WUHU216HW,2013-05-09 10:10:00,
2013-05-09 06:15:00,49.9,47.0,29.89,SSW,203,3.4,5.4,90,0.00,,,0.00,WUHU216HW,2013-05-09 10:15:00,
2013-05-09 06:20:00,50.0,47.4,29.89,WSW,248,1.3,5.4,91,0.00,,,0.00,WUHU216HW,2013-05-09 10:20:00,
2013-05-09 06:25:00,50.0,47.4,29.89,SW,225,0.4,3.6,91,0.00,,,0.00,WUHU216HW,2013-05-09 10:25:00,
2013-05-09 06:30:00,50.0,47.4,29.89,SSW,203,1.1,2.9,91,0.00,,,0.00,WUHU216HW,2013-05-09 10:30:00,
2013-05-09 06:35:00,50.2,47.6,29.90,SSW,203,1.8,3.4,91,0.00,,,0.00,WUHU216HW,2013-05-09 10:35:00,
2013-05-09 06:40:00,50.4,47.8,29.90,WSW,248,1.1,3.4,91,0.00,,,0.00,WUHU216HW,2013-05-09 10:40:00,
2013-05-09 06:45:00,50.6,48.0,29.90,SW,225,2.5,2.7,91,0.00,,,0.00,WUHU216HW,2013-05-09 10:45:00,
2013-05-09 06:50:00,50.8,48.2,29.90,SW,225,2.2,2.9,91,0.00,,,0.00,WUHU216HW,2013-05-09 10:50:00,
2013-05-09 06:55:00,50.8,48.2,29.91,WSW,248,2.0,2.9,91,0.00,,,0.00,WUHU216HW,2013-05-09 10:55:00,
2013-05-09 07:00:00,50.9,48.3,29.91,SSW,203,2.9,3.1,91,0.00,,,0.00,WUHU216HW,2013-05-09 11:00:00,
2013-05-09 07:05:00,50.9,48.3,29.91,WSW,248,0.9,3.4,91,0.00,,,0.00,WUHU216HW,2013-05-09 11:05:00,
2013-05-09 07:10:00,51.1,48.5,29.92,WSW,248,0.4,3.4,91,0.00,,,0.00,WUHU216HW,2013-05-09 11:10:00,
2013-05-09 07:15:00,51.1,48.5,29.91,SW,225,3.4,5.4,91,0.00,,,0.00,WUHU216HW,2013-05-09 11:15:00,
2013-05-09 07:20:00,51.3,48.7,29.92,SW,225,0.4,5.4,91,0.00,,,0.00,WUHU216HW,2013-05-09 11:20:00,
2013-05-09 07:25:00,51.5,48.9,29.92,WNW,293,1.3,3.1,91,0.00,,,0.00,WUHU216HW,2013-05-09 11:25:00,
2013-05-09 07:30:00,51.7,49.1,29.92,South,180,2.0,3.1,91,0.00,,,0.00,WUHU216HW,2013-05-09 11:30:00,
2013-05-09 07:35:00,51.8,49.2,29.92,SW,225,4.0,4.0,91,0.00,,,0.00,WUHU216HW,2013-05-09 11:35:00,
2013-05-09 07:40:00,52.0,49.7,29.92,WNW,293,0.4,4.0,92,0.00,,,0.00,WUHU216HW,2013-05-09 11:40:00,
2013-05-09 07:45:00,52.2,49.9,29.92,East,90,0.4,4.7,92,0.00,,,0.00,WUHU216HW,2013-05-09 11:45:00,
2013-05-09 07:50:00,52.2,49.9,29.92,SW,225,1.8,4.7,92,0.00,,,0.00,WUHU216HW,2013-05-09 11:50:00,
2013-05-09 07:55:00,52.4,50.0,29.93,SSW,203,1.3,2.5,92,0.00,,,0.00,WUHU216HW,2013-05-09 11:55:00,
2013-05-09 08:00:00,52.6,50.2,29.93,West,270,2.2,3.1,92,0.00,,,0.00,WUHU216HW,2013-05-09 12:00:00,
2013-05-09 08:05:00,52.6,50.2,29.93,West,270,0.7,6.3,92,0.00,,,0.00,WUHU216HW,2013-05-09 12:05:00,
2013-05-09 08:10:00,52.7,50.4,29.93,WSW,248,4.7,6.3,92,0.00,,,0.00,WUHU216HW,2013-05-09 12:10:00,
2013-05-09 08:15:00,52.9,50.6,29.94,WSW,248,6.7,6.7,92,0.00,,,0.00,WUHU216HW,2013-05-09 12:15:00,
2013-05-09 08:21:00,52.9,50.6,29.94,West,270,1.1,6.7,92,0.00,,,0.00,WUHU216HW,2013-05-09 12:21:00,
2013-05-09 08:26:00,53.1,50.8,29.94,SW,225,2.5,8.5,92,0.00,,,0.00,WUHU216HW,2013-05-09 12:26:00,
2013-05-09 08:31:00,53.3,50.9,29.94,West,270,2.5,8.5,92,0.00,,,0.00,WUHU216HW,2013-05-09 12:31:00,
2013-05-09 08:36:00,53.3,50.7,29.94,WSW,248,3.4,3.4,91,0.00,,,0.00,WUHU216HW,2013-05-09 12:36:00,
2013-05-09 08:41:00,53.3,50.7,29.94,SW,225,8.5,8.5,91,0.00,,,0.00,WUHU216HW,2013-05-09 12:41:00,
2013-05-09 08:46:00,53.1,50.5,29.95,SW,225,2.5,8.5,91,0.00,,,0.00,WUHU216HW,2013-05-09 12:46:00,
2013-05-09 08:51:00,53.1,50.5,29.95,WNW,293,1.1,5.1,91,0.00,,,0.00,WUHU216HW,2013-05-09 12:51:00,
2013-05-09 08:56:00,53.1,50.2,29.95,WSW,248,3.4,4.0,90,0.00,,,0.00,WUHU216HW,2013-05-09 12:56:00,
2013-05-09 09:01:00,53.1,50.5,29.95,SW,225,1.1,3.8,91,0.00,,,0.00,WUHU216HW,2013-05-09 13:01:00,
2013-05-09 09:06:00,53.3,50.7,29.96,SSW,203,2.2,3.8,91,0.00,,,0.00,WUHU216HW,2013-05-09 13:06:00,
2013-05-09 09:11:00,53.3,50.7,29.96,SSW,203,1.8,2.2,91,0.00,,,0.00,WUHU216HW,2013-05-09 13:11:00,
2013-05-09 09:16:00,53.3,50.7,29.95,WNW,293,1.1,7.4,91,0.00,,,0.00,WUHU216HW,2013-05-09 13:16:00,
2013-05-09 09:21:00,53.6,51.0,29.95,SSW,203,3.6,7.4,91,0.00,,,0.00,WUHU216HW,2013-05-09 13:21:00,
2013-05-09 09:26:00,54.0,51.4,29.95,South,180,1.8,3.6,91,0.00,,,0.00,WUHU216HW,2013-05-09 13:26:00,
2013-05-09 09:31:00,54.4,51.8,29.95,SW,225,1.3,2.7,91,0.00,,,0.00,WUHU216HW,2013-05-09 13:31:00,
2013-05-09 09:36:00,54.5,51.9,29.95,SSW,203,2.2,3.1,91,0.00,,,0.00,WUHU216HW,2013-05-09 13:36:00,
2013-05-09 09:41:00,54.7,51.8,29.95,South,180,5.4,5.4,90,0.00,,,0.00,WUHU216HW,2013-05-09 13:41:00,
2013-05-09 09:46:00,54.9,52.0,29.95,SW,225,0.4,5.6,90,0.00,,,0.00,WUHU216HW,2013-05-09 13:46:00,
2013-05-09 09:51:00,55.3,52.4,29.95,SSW,203,2.7,5.6,90,0.00,,,0.00,WUHU216HW,2013-05-09 13:51:00,
2013-05-09 09:56:00,55.8,52.9,29.96,SSW,203,2.9,5.4,90,0.00,,,0.00,WUHU216HW,2013-05-09 13:56:00,
2013-05-09 10:01:00,56.9,54.0,29.96,West,270,0.4,5.8,90,0.00,,,0.00,WUHU216HW,2013-05-09 14:01:00,
2013-05-09 10:06:00,58.0,54.7,29.96,SSW,203,3.8,5.8,89,0.00,,,0.00,WUHU216HW,2013-05-09 14:06:00,
2013-05-09 10:11:00,58.7,55.4,29.96,WSW,248,2.2,5.4,89,0.00,,,0.00,WUHU216HW,2013-05-09 14:11:00,
2013-05-09 10:16:00,59.2,55.4,29.96,South,180,2.9,5.4,87,0.00,,,0.00,WUHU216HW,2013-05-09 14:16:00,
2013-05-09 10:21:00,60.1,56.3,29.95,SW,225,4.9,4.9,87,0.00,,,0.00,WUHU216HW,2013-05-09 14:21:00,
2013-05-09 10:26:00,61.4,57.2,29.95,SSW,203,2.7,5.1,86,0.00,,,0.00,WUHU216HW,2013-05-09 14:26:00,
2013-05-09 10:31:00,62.1,56.5,29.95,SSW,203,0.9,5.1,82,0.00,,,0.00,WUHU216HW,2013-05-09 14:31:00,
2013-05-09 10:36:00,63.0,57.7,29.96,SSW,203,6.3,7.8,83,0.00,,,0.00,WUHU216HW,2013-05-09 14:36:00,
2013-05-09 10:41:00,63.7,57.8,29.95,SSW,203,6.7,7.8,81,0.00,,,0.00,WUHU216HW,2013-05-09 14:41:00,
2013-05-09 10:46:00,64.8,58.9,29.95,WSW,248,1.6,8.3,81,0.00,,,0.00,WUHU216HW,2013-05-09 14:46:00,
2013-05-09 10:51:00,65.9,60.0,29.95,SW,225,3.6,8.3,81,0.00,,,0.00,WUHU216HW,2013-05-09 14:51:00,
2013-05-09 10:56:00,66.6,59.6,29.95,SSW,203,3.4,7.4,78,0.00,,,0.00,WUHU216HW,2013-05-09 14:56:00,
2013-05-09 11:01:00,67.3,59.9,29.95,WSW,248,5.4,7.4,77,0.00,,,0.00,WUHU216HW,2013-05-09 15:01:00,
2013-05-09 11:06:00,67.9,60.0,29.94,SSW,203,2.0,5.4,76,0.00,,,0.00,WUHU216HW,2013-05-09 15:06:00,
2013-05-09 11:11:00,67.9,59.0,29.94,SSW,203,1.1,4.0,73,0.00,,,0.00,WUHU216HW,2013-05-09 15:11:00,
2013-05-09 11:16:00,68.4,60.6,29.94,SSW,203,8.3,8.3,76,0.00,,,0.00,WUHU216HW,2013-05-09 15:16:00,
2013-05-09 11:21:00,68.9,59.5,29.94,SE,135,2.0,8.3,72,0.00,,,0.00,WUHU216HW,2013-05-09 15:21:00,
2013-05-09 11:26:00,68.9,59.5,29.94,WSW,248,2.5,5.1,72,0.00,,,0.00,WUHU216HW,2013-05-09 15:26:00,
2013-05-09 11:31:00,69.5,60.0,29.94,SW,225,5.8,5.8,72,0.00,,,0.00,WUHU216HW,2013-05-09 15:31:00,
2013-05-09 11:36:00,70.4,60.5,29.94,WNW,293,2.0,5.8,71,0.00,,,0.00,WUHU216HW,2013-05-09 15:36:00,
2013-05-09 11:41:00,70.6,59.5,29.94,West,270,0.9,4.3,68,0.00,,,0.00,WUHU216HW,2013-05-09 15:41:00,
2013-05-09 11:46:00,70.0,58.5,29.94,WNW,293,3.4,4.3,67,0.00,,,0.00,WUHU216HW,2013-05-09 15:46:00,
2013-05-09 11:51:00,70.0,60.1,29.94,West,270,2.0,3.4,71,0.00,,,0.00,WUHU216HW,2013-05-09 15:51:00,
2013-05-09 11:56:00,70.6,58.6,29.94,NNW,338,0.2,2.0,66,0.00,,,0.00,WUHU216HW,2013-05-09 15:56:00,
2013-05-09 12:01:00,70.9,60.2,29.94,SW,225,1.1,5.4,69,0.00,,,0.00,WUHU216HW,2013-05-09 16:01:00,
2013-05-09 12:06:00,70.7,58.3,29.94,NNW,338,0.4,5.4,65,0.00,,,0.00,WUHU216HW,2013-05-09 16:06:00,
2013-05-09 12:11:00,69.7,58.6,29.94,SSE,158,0.0,2.2,68,0.00,,,0.00,WUHU216HW,2013-05-09 16:11:00,
2013-05-09 12:16:00,69.5,59.2,29.94,SW,225,0.9,1.1,70,0.00,,,0.00,WUHU216HW,2013-05-09 16:16:00,
2013-05-09 12:21:00,69.1,59.3,29.94,SSW,203,1.1,1.1,71,0.00,,,0.00,WUHU216HW,2013-05-09 16:21:00,
2013-05-09 12:26:00,68.9,59.5,29.94,NW,315,0.4,1.1,72,0.00,,,0.00,WUHU216HW,2013-05-09 16:26:00,
2013-05-09 12:31:00,68.9,57.5,29.94,WSW,248,0.0,1.3,67,0.00,,,0.00,WUHU216HW,2013-05-09 16:31:00,
2013-05-09 12:36:00,68.9,57.1,29.94,North,0,1.1,1.3,66,0.00,,,0.00,WUHU216HW,2013-05-09 16:36:00,
2013-05-09 12:41:00,68.9,58.8,29.94,SSW,203,0.4,2.9,70,0.00,,,0.00,WUHU216HW,2013-05-09 16:41:00,
2013-05-09 12:46:00,68.9,57.5,29.94,SSW,203,1.8,2.9,67,0.00,,,0.00,WUHU216HW,2013-05-09 16:46:00,
2013-05-09 12:51:00,69.1,58.5,29.94,NNW,338,0.0,2.0,69,0.00,,,0.00,WUHU216HW,2013-05-09 16:51:00,
2013-05-09 12:56:00,69.5,58.0,29.94,North,0,0.7,1.8,67,0.00,,,0.00,WUHU216HW,2013-05-09 16:56:00,
2013-05-09 13:01:00,69.7,55.7,29.94,North,0,0.4,4.0,61,0.00,,,0.00,WUHU216HW,2013-05-09 17:01:00,
2013-05-09 13:06:00,69.8,56.3,29.94,NNW,338,3.6,4.0,62,0.00,,,0.00,WUHU216HW,2013-05-09 17:06:00,
2013-05-09 13:11:00,70.4,55.9,29.94,North,0,3.8,3.8,60,0.00,,,0.00,WUHU216HW,2013-05-09 17:11:00,
2013-05-09 13:16:00,71.6,58.8,29.94,NNE,23,3.4,3.8,64,0.00,,,0.00,WUHU216HW,2013-05-09 17:16:00,
2013-05-09 13:21:00,72.9,58.7,29.94,SSW,203,0.4,5.4,61,0.00,,,0.00,WUHU216HW,2013-05-09 17:21:00,
2013-05-09 13:26:00,73.3,58.5,29.94,NW,315,1.6,5.4,60,0.00,,,0.00,WUHU216HW,2013-05-09 17:26:00,
2013-05-09 13:31:00,72.9,57.2,29.94,ENE,68,2.5,4.7,58,0.00,,,0.00,WUHU216HW,2013-05-09 17:31:00,
2013-05-09 13:36:00,72.7,56.5,29.94,SSE,158,2.0,2.7,57,0.00,,,0.00,WUHU216HW,2013-05-09 17:36:00,
2013-05-09 13:42:00,72.7,57.1,29.94,NW,315,3.4,3.4,58,0.00,,,0.00,WUHU216HW,2013-05-09 17:42:00,
2013-05-09 13:47:00,73.1,56.3,29.94,NW,315,1.1,3.4,56,0.00,,,0.00,WUHU216HW,2013-05-09 17:47:00,
2013-05-09 13:52:00,73.1,55.4,29.94,NW,315,1.8,4.0,54,0.00,,,0.00,WUHU216HW,2013-05-09 17:52:00,
2013-05-09 13:57:00,72.5,56.3,29.94,NNE,23,2.2,4.0,57,0.00,,,0.00,WUHU216HW,2013-05-09 17:57:00,
2013-05-09 14:02:00,72.4,55.7,29.94,North,0,1.6,3.6,56,0.00,,,0.00,WUHU216HW,2013-05-09 18:02:00,
2013-05-09 14:07:00,72.4,56.2,29.94,NW,315,3.8,3.8,57,0.00,,,0.00,WUHU216HW,2013-05-09 18:07:00,
2013-05-09 14:12:00,72.4,56.2,29.94,North,0,1.1,3.8,57,0.00,,,0.00,WUHU216HW,2013-05-09 18:12:00,
2013-05-09 14:17:00,72.2,56.1,29.94,NNW,338,1.8,1.8,57,0.00,,,0.00,WUHU216HW,2013-05-09 18:17:00,
2013-05-09 14:22:00,72.0,56.3,29.94,WSW,248,0.9,3.1,58,0.00,,,0.00,WUHU216HW,2013-05-09 18:22:00,
2013-05-09 14:27:00,72.0,56.3,29.94,North,0,1.8,3.1,58,0.00,,,0.00,WUHU216HW,2013-05-09 18:27:00,
2013-05-09 14:32:00,72.2,56.5,29.94,NW,315,1.3,2.2,58,0.00,,,0.00,WUHU216HW,2013-05-09 18:32:00,
2013-05-09 14:37:00,72.2,56.1,29.94,NNW,338,3.4,3.4,57,0.00,,,0.00,WUHU216HW,2013-05-09 18:37:00,
2013-05-09 14:42:00,72.2,56.5,29.94,North,0,1.8,3.4,58,0.00,,,0.00,WUHU216HW,2013-05-09 18:42:00,
2013-05-09 14:47:00,72.0,57.4,29.94,North,0,2.0,2.2,60,0.00,,,0.00,WUHU216HW,2013-05-09 18:47:00,
2013-05-09 14:52:00,72.4,56.7,29.94,NNW,338,0.7,5.1,58,0.00,,,0.00,WUHU216HW,2013-05-09 18:52:00,
2013-05-09 14:57:00,72.0,55.9,29.94,NE,45,1.6,5.1,57,0.00,,,0.00,WUHU216HW,2013-05-09 18:57:00,
2013-05-09 15:02:00,72.0,55.4,29.94,North,0,2.7,2.7,56,0.00,,,0.00,WUHU216HW,2013-05-09 19:02:00,
2013-05-09 15:07:00,71.8,55.7,29.94,NNW,338,0.4,2.7,57,0.00,,,0.00,WUHU216HW,2013-05-09 19:07:00,
2013-05-09 15:12:00,72.2,55.5,29.93,North,0,2.5,2.5,56,0.00,,,0.00,WUHU216HW,2013-05-09 19:12:00,
2013-05-09 15:17:00,72.9,56.2,29.93,North,0,3.4,4.7,56,0.00,,,0.00,WUHU216HW,2013-05-09 19:17:00,
2013-05-09 15:22:00,73.1,55.8,29.93,NW,315,1.1,4.7,55,0.00,,,0.00,WUHU216HW,2013-05-09 19:22:00,
2013-05-09 15:27:00,72.5,55.4,29.93,North,0,1.8,3.4,55,0.00,,,0.00,WUHU216HW,2013-05-09 19:27:00,
2013-05-09 15:32:00,72.4,56.2,29.93,North,0,2.5,3.4,57,0.00,,,0.00,WUHU216HW,2013-05-09 19:32:00,
2013-05-09 15:37:00,72.4,56.7,29.93,North,0,1.3,3.1,58,0.00,,,0.00,WUHU216HW,2013-05-09 19:37:00,
2013-05-09 15:42:00,72.4,55.7,29.93,NNE,23,3.6,3.6,56,0.00,,,0.00,WUHU216HW,2013-05-09 19:42:00,
2013-05-09 15:47:00,72.4,56.2,29.93,NNW,338,0.2,3.6,57,0.00,,,0.00,WUHU216HW,2013-05-09 19:47:00,
2013-05-09 15:52:00,72.7,57.1,29.93,North,0,4.3,4.3,58,0.00,,,0.00,WUHU216HW,2013-05-09 19:52:00,
2013-05-09 15:57:00,72.7,56.5,29.92,North,0,2.5,4.3,57,0.00,,,0.00,WUHU216HW,2013-05-09 19:57:00,
2013-05-09 16:02:00,72.9,56.7,29.92,North,0,1.6,3.6,57,0.00,,,0.00,WUHU216HW,2013-05-09 20:02:00,
2013-05-09 16:07:00,73.3,57.5,29.92,NNE,23,4.0,4.7,58,0.00,,,0.00,WUHU216HW,2013-05-09 20:07:00,
2013-05-09 16:12:00,73.4,57.2,29.92,North,0,2.0,4.7,57,0.00,,,0.00,WUHU216HW,2013-05-09 20:12:00,
2013-05-09 16:17:00,73.8,56.5,29.92,North,0,2.0,4.7,55,0.00,,,0.00,WUHU216HW,2013-05-09 20:17:00,
2013-05-09 16:22:00,73.4,56.2,29.92,NNW,338,1.8,4.7,55,0.00,,,0.00,WUHU216HW,2013-05-09 20:22:00,
2013-05-09 16:27:00,73.6,55.8,29.92,North,0,1.1,2.5,54,0.00,,,0.00,WUHU216HW,2013-05-09 20:27:00,
2013-05-09 16:32:00,73.3,57.0,29.92,NNW,338,3.1,3.1,57,0.00,,,0.00,WUHU216HW,2013-05-09 20:32:00,
2013-05-09 16:37:00,72.9,55.2,29.92,NNW,338,1.1,3.1,54,0.00,,,0.00,WUHU216HW,2013-05-09 20:37:00,
2013-05-09 16:42:00,72.5,55.4,29.92,NW,315,2.5,2.5,55,0.00,,,0.00,WUHU216HW,2013-05-09 20:42:00,
2013-05-09 16:47:00,72.5,56.3,29.92,NW,315,1.1,2.5,57,0.00,,,0.00,WUHU216HW,2013-05-09 20:47:00,
2013-05-09 16:52:00,72.4,56.2,29.93,SW,225,2.5,2.5,57,0.00,,,0.00,WUHU216HW,2013-05-09 20:52:00,
2013-05-09 16:57:00,71.8,55.7,29.93,NW,315,0.4,3.6,57,0.00,,,0.00,WUHU216HW,2013-05-09 20:57:00,
2013-05-09 17:02:00,71.3,56.7,29.93,NW,315,2.7,4.0,60,0.00,,,0.00,WUHU216HW,2013-05-09 21:02:00,
2013-05-09 17:08:00,70.7,56.7,29.93,NNW,338,1.8,4.0,61,0.00,,,0.00,WUHU216HW,2013-05-09 21:08:00,
2013-05-09 17:13:00,70.6,56.5,29.93,NW,315,0.0,3.6,61,0.00,,,0.00,WUHU216HW,2013-05-09 21:13:00,
2013-05-09 17:19:00,70.6,57.0,29.93,SW,225,0.4,2.0,62,0.00,,,0.00,WUHU216HW,2013-05-09 21:19:00,
2013-05-09 17:24:00,70.6,57.3,29.93,South,180,0.4,2.7,63,0.00,,,0.00,WUHU216HW,2013-05-09 21:24:00,
2013-05-09 17:29:00,70.7,57.5,29.93,North,0,1.1,2.7,63,0.00,,,0.00,WUHU216HW,2013-05-09 21:29:00,
2013-05-09 17:34:00,70.9,57.2,29.93,NNW,338,0.9,2.5,62,0.00,,,0.00,WUHU216HW,2013-05-09 21:34:00,
2013-05-09 17:39:00,70.9,55.9,29.93,North,0,1.6,1.6,59,0.00,,,0.00,WUHU216HW,2013-05-09 21:39:00,
2013-05-09 17:44:00,70.9,56.4,29.92,NNW,338,0.7,1.6,60,0.00,,,0.00,WUHU216HW,2013-05-09 21:44:00,
2013-05-09 17:49:00,71.3,57.6,29.92,North,0,0.9,1.1,62,0.00,,,0.00,WUHU216HW,2013-05-09 21:49:00,
2013-05-09 17:54:00,71.5,57.3,29.92,NW,315,0.7,0.9,61,0.00,,,0.00,WUHU216HW,2013-05-09 21:54:00,
2013-05-09 17:59:00,71.6,56.1,29.92,NNW,338,0.7,2.5,58,0.00,,,0.00,WUHU216HW,2013-05-09 21:59:00,
2013-05-09 18:04:00,72.0,56.3,29.91,NNW,338,0.4,2.5,58,0.00,,,0.00,WUHU216HW,2013-05-09 22:04:00,
2013-05-09 18:09:00,72.2,56.5,29.92,NNW,338,1.1,1.1,58,0.00,,,0.00,WUHU216HW,2013-05-09 22:09:00,
2013-05-09 18:14:00,72.4,57.3,29.92,WNW,293,0.4,1.6,59,0.00,,,0.00,WUHU216HW,2013-05-09 22:14:00,
2013-05-09 18:19:00,72.4,56.2,29.92,NW,315,0.4,1.6,57,0.00,,,0.00,WUHU216HW,2013-05-09 22:19:00,
2013-05-09 18:24:00,72.5,57.3,29.92,NE,45,0.9,1.3,59,0.00,,,0.00,WUHU216HW,2013-05-09 22:24:00,
2013-05-09 18:29:00,72.5,57.9,29.92,North,0,0.0,1.3,60,0.00,,,0.00,WUHU216HW,2013-05-09 22:29:00,
2013-05-09 18:34:00,72.4,57.7,29.92,North,0,0.2,0.4,60,0.00,,,0.00,WUHU216HW,2013-05-09 22:34:00,
2013-05-09 18:39:00,72.0,57.8,29.92,SSW,203,0.2,0.7,61,0.00,,,0.00,WUHU216HW,2013-05-09 22:39:00,
2013-05-09 18:44:00,71.8,57.3,29.92,East,90,0.2,0.9,60,0.00,,,0.00,WUHU216HW,2013-05-09 22:44:00,
2013-05-09 18:50:00,71.6,57.5,29.92,NW,315,0.2,0.9,61,0.00,,,0.00,WUHU216HW,2013-05-09 22:50:00,
2013-05-09 18:55:00,71.5,57.3,29.93,WNW,293,0.0,0.7,61,0.00,,,0.00,WUHU216HW,2013-05-09 22:55:00,
2013-05-09 18:59:00,71.5,57.3,29.93,WNW,293,0.0,0.4,61,0.00,,,0.00,WUHU216HW,2013-05-09 22:59:00,
2013-05-09 19:04:00,71.5,57.8,29.93,West,270,0.0,0.4,62,0.00,,,0.00,WUHU216HW,2013-05-09 23:04:00,
2013-05-09 19:10:00,71.5,57.8,29.93,NW,315,0.4,0.7,62,0.00,,,0.00,WUHU216HW,2013-05-09 23:10:00,
2013-05-09 19:15:00,71.6,58.0,29.93,NW,315,0.4,0.7,62,0.00,,,0.00,WUHU216HW,2013-05-09 23:15:00,
2013-05-09 19:20:00,71.6,58.0,29.93,North,0,0.0,0.7,62,0.00,,,0.00,WUHU216HW,2013-05-09 23:20:00,
2013-05-09 19:25:00,71.6,58.3,29.93,NE,45,0.0,0.7,63,0.00,,,0.00,WUHU216HW,2013-05-09 23:25:00,
2013-05-09 19:30:00,71.6,58.3,29.93,NE,45,0.0,0.2,63,0.00,,,0.00,WUHU216HW,2013-05-09 23:30:00,
2013-05-09 19:35:00,71.5,58.2,29.94,ENE,68,0.0,0.0,63,0.00,,,0.00,WUHU216HW,2013-05-09 23:35:00,
2013-05-09 19:40:00,71.3,58.1,29.94,SE,135,0.2,1.1,63,0.00,,,0.00,WUHU216HW,2013-05-09 23:40:00,
2013-05-09 19:45:00,70.9,57.7,29.94,SE,135,0.0,0.9,63,0.00,,,0.00,WUHU216HW,2013-05-09 23:45:00,
2013-05-09 19:50:00,70.6,57.3,29.94,SE,135,0.0,0.0,63,0.00,,,0.00,WUHU216HW,2013-05-09 23:50:00,
2013-05-09 19:55:00,70.2,57.4,29.94,SE,135,0.0,0.0,64,0.00,,,0.00,WUHU216HW,2013-05-09 23:55:00,
2013-05-09 20:00:00,69.8,57.5,29.94,North,0,0.4,1.1,65,0.00,,,0.00,WUHU216HW,2013-05-10 00:00:00,
2013-05-09 20:06:00,69.3,57.0,29.95,North,0,0.0,1.1,65,0.00,,,0.00,WUHU216HW,2013-05-10 00:06:00,
2013-05-09 20:11:00,68.2,56.8,29.95,North,0,0.0,0.7,67,0.00,,,0.00,WUHU216HW,2013-05-10 00:11:00,
2013-05-09 20:16:00,67.7,56.4,29.95,North,0,0.0,0.9,67,0.00,,,0.00,WUHU216HW,2013-05-10 00:16:00,
2013-05-09 20:21:00,67.5,56.6,29.95,NNE,23,0.0,0.9,68,0.00,,,0.00,WUHU216HW,2013-05-10 00:21:00,
2013-05-09 20:26:00,67.3,56.4,29.95,NNE,23,0.0,0.0,68,0.00,,,0.00,WUHU216HW,2013-05-10 00:26:00,
2013-05-09 20:31:00,66.8,56.3,29.95,NNE,23,0.0,0.0,69,0.00,,,0.00,WUHU216HW,2013-05-10 00:31:00,
2013-05-09 20:36:00,66.4,55.9,29.96,NNE,23,0.0,0.0,69,0.00,,,0.00,WUHU216HW,2013-05-10 00:36:00,
2013-05-09 20:41:00,66.1,55.6,29.96,SSE,158,0.7,0.7,69,0.00,,,0.00,WUHU216HW,2013-05-10 00:41:00,
2013-05-09 20:46:00,65.7,55.7,29.96,SSW,203,0.0,0.7,70,0.00,,,0.00,WUHU216HW,2013-05-10 00:46:00,
2013-05-09 20:51:00,65.2,55.2,29.96,SSW,203,0.0,0.4,70,0.00,,,0.00,WUHU216HW,2013-05-10 00:51:00,
2013-05-09 20:56:00,65.0,55.0,29.97,SSW,203,0.0,0.7,70,0.00,,,0.00,WUHU216HW,2013-05-10 00:56:00,
2013-05-09 21:01:00,64.6,55.1,29.97,SSW,203,0.0,0.7,71,0.00,,,0.00,WUHU216HW,2013-05-10 01:01:00,
2013-05-09 21:06:00,64.3,55.1,29.97,SW,225,0.4,0.4,72,0.00,,,0.00,WUHU216HW,2013-05-10 01:06:00,
2013-05-09 21:11:00,63.7,54.9,29.98,SW,225,0.7,2.0,73,0.00,,,0.00,WUHU216HW,2013-05-10 01:11:00,
2013-05-09 21:16:00,63.4,54.9,29.98,West,270,0.0,2.0,74,0.00,,,0.00,WUHU216HW,2013-05-10 01:16:00,
2013-05-09 21:21:00,63.0,54.5,29.98,West,270,0.0,0.4,74,0.00,,,0.00,WUHU216HW,2013-05-10 01:21:00,
2013-05-09 21:26:00,63.0,54.5,29.99,WSW,248,0.0,0.0,74,0.00,,,0.00,WUHU216HW,2013-05-10 01:26:00,
2013-05-09 21:31:00,63.0,54.5,29.98,WSW,248,0.0,0.0,74,0.00,,,0.00,WUHU216HW,2013-05-10 01:31:00,
2013-05-09 21:36:00,62.8,54.4,29.98,SW,225,0.2,0.4,74,0.00,,,0.00,WUHU216HW,2013-05-10 01:36:00,
2013-05-09 21:41:00,62.6,54.2,29.99,SW,225,0.0,0.4,74,0.00,,,0.00,WUHU216HW,2013-05-10 01:41:00,
2013-05-09 21:46:00,62.1,53.7,29.99,SE,135,0.0,0.0,74,0.00,,,0.00,WUHU216HW,2013-05-10 01:46:00,
2013-05-09 21:51:00,61.7,54.1,29.99,SSW,203,0.0,0.0,76,0.00,,,0.00,WUHU216HW,2013-05-10 01:51:00,
2013-05-09 21:56:00,61.4,54.1,29.99,West,270,0.0,0.9,77,0.00,,,0.00,WUHU216HW,2013-05-10 01:56:00,
2013-05-09 22:01:00,61.0,53.8,30.00,SSE,158,0.7,0.9,77,0.00,,,0.00,WUHU216HW,2013-05-10 02:01:00,
2013-05-09 22:06:00,61.0,53.8,30.00,West,270,0.0,1.1,77,0.00,,,0.00,WUHU216HW,2013-05-10 02:06:00,
2013-05-09 22:11:00,60.7,53.8,29.99,West,270,0.0,1.1,78,0.00,,,0.00,WUHU216HW,2013-05-10 02:11:00,
2013-05-09 22:16:00,60.3,53.8,29.99,West,270,0.0,0.0,79,0.00,,,0.00,WUHU216HW,2013-05-10 02:16:00,
2013-05-09 22:21:00,60.1,53.6,29.99,SW,225,0.0,0.0,79,0.00,,,0.00,WUHU216HW,2013-05-10 02:21:00,
2013-05-09 22:27:00,60.1,53.6,29.99,SW,225,0.0,0.0,79,0.00,,,0.00,WUHU216HW,2013-05-10 02:27:00,
2013-05-09 22:32:00,59.9,53.5,29.98,SW,225,0.0,0.0,79,0.00,,,0.00,WUHU216HW,2013-05-10 02:32:00,
2013-05-09 22:37:00,59.9,53.5,29.98,SW,225,0.0,0.0,79,0.00,,,0.00,WUHU216HW,2013-05-10 02:37:00,
2013-05-09 22:42:00,59.8,53.3,29.98,SW,225,0.0,0.0,79,0.00,,,0.00,WUHU216HW,2013-05-10 02:42:00,
2013-05-09 22:47:00,59.6,53.5,29.98,WSW,248,0.0,0.4,80,0.00,,,0.00,WUHU216HW,2013-05-10 02:47:00,
2013-05-09 22:52:00,59.4,52.9,29.98,WSW,248,0.0,0.4,79,0.00,,,0.00,WUHU216HW,2013-05-10 02:52:00,
2013-05-09 22:57:00,59.2,52.7,29.98,WSW,248,0.0,0.0,79,0.00,,,0.00,WUHU216HW,2013-05-10 02:57:00,
2013-05-09 23:02:00,59.0,52.9,29.98,WSW,248,0.0,0.0,80,0.00,,,0.00,WUHU216HW,2013-05-10 03:02:00,
2013-05-09 23:07:00,58.9,52.7,29.98,WSW,248,0.0,0.0,80,0.00,,,0.00,WUHU216HW,2013-05-10 03:07:00,
2013-05-09 23:12:00,58.7,52.6,29.98,WSW,248,0.0,0.0,80,0.00,,,0.00,WUHU216HW,2013-05-10 03:12:00,
2013-05-09 23:17:00,58.7,52.6,29.98,SW,225,0.0,0.0,80,0.00,,,0.00,WUHU216HW,2013-05-10 03:17:00,
2013-05-09 23:22:00,58.7,52.9,29.98,SW,225,1.6,2.5,81,0.00,,,0.00,WUHU216HW,2013-05-10 03:22:00,
2013-05-09 23:27:00,58.7,52.9,29.97,SSW,203,1.1,2.5,81,0.00,,,0.00,WUHU216HW,2013-05-10 03:27:00,
2013-05-09 23:32:00,58.3,52.6,29.97,SSW,203,1.3,1.6,81,0.00,,,0.00,WUHU216HW,2013-05-10 03:32:00,
2013-05-09 23:37:00,58.1,52.4,29.97,WSW,248,0.4,1.6,81,0.00,,,0.00,WUHU216HW,2013-05-10 03:37:00,
2013-05-09 23:42:00,58.0,52.2,29.97,WSW,248,0.0,1.1,81,0.00,,,0.00,WUHU216HW,2013-05-10 03:42:00,
2013-05-09 23:47:00,57.8,52.0,29.97,WSW,248,0.0,0.0,81,0.00,,,0.00,WUHU216HW,2013-05-10 03:47:00,
2013-05-09 23:52:00,57.6,52.1,29.97,SSW,203,0.9,0.9,82,0.00,,,0.00,WUHU216HW,2013-05-10 03:52:00,
2013-05-09 23:57:00,57.8,52.3,29.97,SW,225,0.0,0.9,82,0.00,,,0.00,WUHU216HW,2013-05-10 03:57:00,